[[{"header":{"parameterUnit":"m.s-1","parameterCategory":1,"la1":30.2991,"la2":30.254,"lo1":-89.0895,"lo2":-89.0444,"dy":0.0017,"dx":0.0017,"nx":28,"ny":28,"refTime":"2025-05-22T09:00:00:Z","depth":0,"parameterNumber":2,"parameterNumberName":"U-component_of_WINDS"},"data":[0,0,0,0,0,0,0,0,0,0,0,0,0,0,0,0,0,0,0,0,0,0,0,0,0,0,0,0,0,0,0,0,0,0,0,0,0,0,0,0,0,0,0,0,0,0,0,0,0,0,0,0,0,0,0,0,0,0,1.6095,1.6095,0,1.6152,1.6153,1.6153,1.6144,1.6143,1.6142,1.6141,1.6197,1.6199,1.6201,0,0,0,0,0,0,0,0,0,0,0,0,0,1.5972,1.5974,1.6095,1.6095,1.6096,1.6152,1.6153,1.6154,1.6144,1.6143,1.6142,1.614,1.6196,1.6199,1.6202,0,0,0,0,0,0,0,0,0,0,0,0,0,1.6027,1.5975,1.6094,1.6098,1.6099,1.6152,1.6153,1.6154,1.6144,1.6143,1.6141,1.614,1.6195,1.6198,1.6202,1.6254,0,0,1.6213,1.6215,0,0,0,0,0,0,0,0,1.6024,1.6031,1.6097,1.6098,1.6099,1.6139,1.613,1.6187,1.6145,1.6127,1.6141,1.6139,1.6179,1.6183,1.6197,1.6257,1.6259,1.6213,1.6216,1.6217,1.6218,0,0,0,0,0,0,0,1.602,1.6029,1.6117,1.6098,1.6099,1.6095,1.6102,1.6141,1.616,1.6128,1.6128,1.6135,1.6179,1.6194,1.6199,1.626,1.6213,1.6216,1.6219,1.622,1.6362,1.6364,0,0,0,0,0,0,1.6016,1.6026,1.6115,1.6119,1.6057,1.6099,1.6106,1.6128,1.616,1.6163,1.6136,1.6134,1.6189,1.6194,1.6201,1.6262,1.6217,1.622,1.6223,1.6361,1.6363,1.6364,0,0,0,0,0,0,1.6013,1.6024,1.6113,1.6072,1.6083,1.6103,1.6127,1.613,1.6145,1.6166,1.6169,1.6148,1.6188,1.6195,1.6241,1.6264,1.6222,1.6225,1.6359,1.6361,1.6363,1.6386,0,0,0,0,0,0,1.601,1.6023,1.6044,1.6073,1.6086,1.6153,1.6129,1.6132,1.6151,1.615,1.6178,1.6181,1.6187,1.6235,1.6244,1.6268,1.6228,1.6357,1.636,1.6363,1.6383,1.6388,1.6393,0,0,0,0,0,1.6005,1.6048,1.6045,1.6056,1.6112,1.6155,1.6162,1.6169,1.6153,1.6174,1.6187,1.618,1.626,1.624,1.625,1.6275,1.6355,1.6359,1.6362,1.638,1.6387,1.6393,0,0,0,0,0,0,1.602,1.6052,1.6049,1.6102,1.6126,1.6153,1.6179,1.6176,1.6204,1.6201,1.6207,1.6213,1.6259,1.6272,1.6249,1.6326,1.6305,1.6311,1.6316,1.6322,1.6327,1.6322,1.6231,0,0,0,0,0,1.603,1.6063,1.6088,1.6133,1.6145,1.616,1.6179,1.6182,1.6206,1.6216,1.6232,1.6255,1.6285,1.6305,1.6334,1.6385,1.639,1.6407,1.6412,1.6417,1.6421,1.6447,1.6454,1.6376,1.6376,1.6376,0,0,1.605,1.6071,1.6091,1.6136,1.6155,1.6187,1.6168,1.6204,1.6227,1.6221,1.6264,1.6277,1.6303,1.6351,1.6373,1.6363,1.6444,1.6421,1.6424,1.6426,1.6451,1.6458,1.6465,1.6379,1.6378,1.6378,0,0,1.6102,1.6123,1.6161,1.618,1.6209,1.6218,1.6228,1.6255,1.6264,1.6307,1.6303,1.633,1.6382,1.64,1.6416,1.6474,1.6468,1.6484,1.651,1.6535,1.6541,1.6547,1.6565,1.6572,1.6488,1.6488,1.6488,0,1.6123,1.6173,1.6181,1.6216,1.6235,1.6232,1.6269,1.6287,1.6323,1.6336,1.6325,1.6389,1.6406,1.6457,1.6471,1.6485,1.6494,1.648,1.654,1.6545,1.6551,1.6568,1.6575,1.649,1.649,1.6489,1.6489,0,1.6195,1.623,1.6257,1.6293,1.6315,1.6351,1.6363,1.6384,1.6385,1.6396,1.6439,1.646,1.6492,1.6505,1.6506,1.6555,1.6548,1.6539,1.6518,1.6559,1.6576,1.6583,1.6492,1.6491,1.6491,1.6491,0,0,1.6258,1.6297,1.6307,1.6322,1.6353,1.6379,1.6415,1.6447,1.6464,1.6489,1.6517,1.6561,1.6552,1.657,1.6574,1.6596,1.6638,1.6584,1.6584,1.6591,1.6691,1.6696,1.6704,1.6635,1.6636,1.6638,1.6688,0,1.6312,1.6375,1.6383,1.6439,1.6469,1.6466,1.6497,1.6518,1.6529,1.6555,1.6566,1.6596,1.6584,1.6594,1.6616,1.6628,1.6658,1.6625,1.6659,1.6661,1.6651,1.6713,1.672,1.6766,1.6695,1.6696,1.6697,0,1.6383,1.641,1.6469,1.6494,1.6507,1.6535,1.6564,1.659,1.6613,1.6619,1.6639,1.6639,1.6674,1.6653,1.67,1.6677,1.6692,1.67,1.6702,1.6704,1.668,1.6715,1.6781,1.6788,1.6707,1.6707,1.6706,0,1.6419,1.6471,1.6512,1.6526,1.6557,1.6576,1.659,1.6612,1.663,1.6656,1.6667,1.6696,1.6711,1.6733,1.674,1.6725,1.6786,1.6766,1.679,1.6789,1.6801,1.68,1.6869,1.6814,1.6814,1.6814,1.6814,0,1.6477,1.6513,1.6529,1.6554,1.6593,1.6602,1.664,1.6652,1.6672,1.6698,1.6698,1.6722,1.6732,1.6757,1.6763,1.68,1.6807,1.6811,1.6812,1.681,1.6809,1.6818,1.6815,1.6816,1.6816,1.6815,1.6815,0,1.6524,1.6537,1.6581,1.6608,1.6615,1.6642,1.6664,1.6687,1.6697,1.6731,1.6739,1.6754,1.6784,1.6794,1.6831,1.6834,1.6876,1.6875,1.6868,1.6868,1.689,1.6887,1.6966,1.6976,1.6916,1.6917,1.6917,0,1.6559,1.6586,1.6615,1.6633,1.6648,1.6677,1.6695,1.6704,1.6723,1.6752,1.6771,1.6801,1.6825,1.6873,1.6887,1.6914,1.6912,1.6938,1.6916,1.6913,1.691,1.6907,1.6909,1.6941,1.6942,1.6942,1.6943,0,1.6619,1.6624,1.6651,1.6681,1.6703,1.6726,1.6749,1.6763,1.6775,1.6796,1.6827,1.6846,1.6883,1.6912,1.6939,1.6952,1.6948,1.695,1.6956,1.6954,1.6948,1.6949,1.6877,1.6948,1.6947,1.6947,1.6947,1.6946,1.666,1.6683,1.6706,1.6736,1.6754,1.6775,1.6798,1.6811,1.6837,1.6868,1.6872,1.6905,1.6926,1.6963,1.6977,1.7001,1.6994,1.7004,1.7006,1.7008,1.7008,1.6946,1.7007,1.7007,1.7006,1.7006,1.7006,0,1.6717,1.6732,1.676,1.6791,1.6815,1.6811,1.6835,1.6854,1.6884,1.6904,1.6928,1.6963,1.6991,1.7006,1.7034,1.705,1.7049,1.7057,1.7055,1.7057,1.7015,1.7005,1.7057,1.7057,1.7057,1.7057,1.7057,1.7057,1.675,1.6789,1.6796,1.6843,1.6857,1.689,1.6904,1.6922,1.6939,1.6977,1.7001,1.7011,1.7029,1.7058,1.7083,1.7087,1.7096,1.7104,1.7106,1.7066,1.7061,1.7055,1.7047,1.7106,1.7106,1.7147,1.7147,1.7147]},{"header":{"parameterUnit":"m.s-1","parameterCategory":1,"la1":30.2991,"la2":30.254,"lo1":-89.0895,"lo2":-89.0444,"dy":0.0017,"dx":0.0017,"nx":28,"ny":28,"refTime":"2025-05-22T09:00:00:Z","depth":0,"parameterNumber":3,"parameterNumberName":"V-component_of_WINDS"},"data":[0,0,0,0,0,0,0,0,0,0,0,0,0,0,0,0,0,0,0,0,0,0,0,0,0,0,0,0,0,0,0,0,0,0,0,0,0,0,0,0,0,0,0,0,0,0,0,0,0,0,0,0,0,0,0,0,0,0,2.2857,2.2857,0,2.2895,2.2896,2.2896,2.2863,2.2861,2.286,2.2859,2.2897,2.2899,2.2901,0,0,0,0,0,0,0,0,0,0,0,0,0,2.2752,2.2754,2.2857,2.2858,2.2858,2.2895,2.2896,2.2896,2.2863,2.2861,2.286,2.2858,2.2896,2.2899,2.2901,0,0,0,0,0,0,0,0,0,0,0,0,0,2.2795,2.2755,2.2857,2.2846,2.2845,2.2895,2.2896,2.2897,2.2863,2.2861,2.2859,2.2857,2.2895,2.2898,2.2902,2.2964,0,0,2.2912,2.2914,0,0,0,0,0,0,0,0,2.2792,2.2798,2.2847,2.2847,2.2846,2.2872,2.2873,2.2919,2.2864,2.2856,2.2859,2.2856,2.289,2.2894,2.2906,2.2966,2.2968,2.2913,2.2915,2.2916,2.2917,0,0,0,0,0,0,0,2.2789,2.2797,2.2872,2.2848,2.2847,2.2838,2.2842,2.2881,2.2884,2.2857,2.2855,2.286,2.289,2.2902,2.2906,2.2968,2.2913,2.2916,2.2918,2.2919,2.3079,2.3082,0,0,0,0,0,0,2.2788,2.2794,2.2871,2.2873,2.2814,2.2842,2.2846,2.2866,2.2884,2.2885,2.2861,2.2858,2.2898,2.2902,2.2907,2.298,2.2916,2.2919,2.2921,2.3077,2.308,2.3082,0,0,0,0,0,0,2.2786,2.2795,2.2869,2.2833,2.2842,2.2846,2.2868,2.2868,2.2881,2.2887,2.2887,2.2874,2.2896,2.2903,2.295,2.2981,2.2921,2.2924,2.3075,2.3078,2.3081,2.3127,0,0,0,0,0,0,2.2783,2.2794,2.2819,2.2834,2.2844,2.2912,2.287,2.287,2.2887,2.2883,2.2899,2.29,2.2895,2.2945,2.2953,2.2985,2.2927,2.3072,2.3076,2.308,2.3123,2.3132,2.3139,0,0,0,0,0,2.2779,2.2831,2.2821,2.283,2.2875,2.2914,2.292,2.2913,2.289,2.2914,2.2917,2.29,2.2976,2.295,2.2959,2.2992,2.307,2.3075,2.308,2.3119,2.313,2.3139,0,0,0,0,0,0,2.282,2.2833,2.2821,2.288,2.2896,2.2909,2.2939,2.2925,2.2949,2.2944,2.2934,2.2938,2.2988,2.2995,2.2965,2.3052,2.3019,2.3026,2.3046,2.3056,2.3064,2.3061,2.293,0,0,0,0,0,2.2835,2.2867,2.2876,2.2927,2.2935,2.2936,2.2953,2.2946,2.2963,2.2969,2.2977,2.2993,2.302,2.3039,2.3065,2.3124,2.3126,2.3151,2.3159,2.3165,2.3171,2.3201,2.3211,2.3099,2.3099,2.3098,0,0,2.2868,2.2879,2.29,2.2935,2.2947,2.2978,2.2942,2.2977,2.3,2.2974,2.3019,2.3025,2.3042,2.3095,2.3119,2.3103,2.3203,2.3172,2.3177,2.3179,2.3207,2.3218,2.3227,2.3102,2.3101,2.3101,0,0,2.2944,2.2956,2.2998,2.301,2.3029,2.3028,2.3038,2.3053,2.3056,2.31,2.3081,2.3108,2.3156,2.3168,2.3181,2.3259,2.3242,2.3267,2.331,2.3338,2.3347,2.3355,2.3381,2.3391,2.3273,2.3274,2.3274,0,2.2982,2.3029,2.3021,2.3058,2.3073,2.3051,2.3092,2.3105,2.3131,2.3141,2.3122,2.3181,2.3191,2.3246,2.3264,2.3276,2.3286,2.3265,2.3347,2.3355,2.3362,2.3386,2.3396,2.3276,2.3276,2.3276,2.3276,0,2.3074,2.3107,2.3139,2.3164,2.3183,2.3222,2.3219,2.3238,2.323,2.3231,2.3276,2.3287,2.3313,2.3326,2.3318,2.3379,2.3368,2.3348,2.3315,2.3375,2.3398,2.3408,2.328,2.3279,2.3279,2.3278,0,0,2.3178,2.3196,2.3208,2.3218,2.3236,2.326,2.3297,2.3323,2.334,2.3358,2.3387,2.3428,2.3409,2.3423,2.3417,2.3442,2.3501,2.3419,2.3419,2.3432,2.3566,2.358,2.3591,2.349,2.3492,2.3493,2.3564,0,2.3252,2.3317,2.331,2.3371,2.34,2.3378,2.341,2.3424,2.3426,2.345,2.3451,2.3479,2.3453,2.3462,2.3486,2.3488,2.3527,2.3483,2.3516,2.3517,2.3511,2.3603,2.3618,2.3684,2.3573,2.3574,2.3576,0,2.3349,2.337,2.3434,2.3444,2.3456,2.3485,2.3507,2.3531,2.3545,2.3544,2.356,2.3548,2.3583,2.3549,2.3597,2.3567,2.358,2.3583,2.3585,2.3588,2.355,2.3606,2.3706,2.3715,2.359,2.3589,2.3588,0,2.3415,2.3459,2.3503,2.3512,2.3527,2.3547,2.3554,2.3566,2.3581,2.36,2.361,2.3633,2.3645,2.3663,2.3657,2.3633,2.3705,2.3671,2.3704,2.3705,2.372,2.3719,2.3822,2.3731,2.373,2.373,2.373,0,2.3499,2.3539,2.3532,2.3559,2.3602,2.3593,2.3635,2.3639,2.365,2.3676,2.3659,2.3683,2.3674,2.3698,2.3693,2.3732,2.3739,2.3738,2.3736,2.3739,2.3739,2.3747,2.3741,2.3733,2.3732,2.3732,2.3731,0,2.3581,2.3579,2.3624,2.3633,2.3636,2.3668,2.3675,2.3699,2.3699,2.3732,2.3739,2.3738,2.3765,2.3761,2.3791,2.3787,2.3836,2.3829,2.3831,2.3829,2.3862,2.3858,2.3972,2.3986,2.3887,2.3888,2.3889,0,2.3634,2.3664,2.3676,2.3692,2.37,2.3727,2.3742,2.3733,2.3749,2.3767,2.3788,2.3813,2.3833,2.3877,2.3878,2.39,2.3893,2.3931,2.3896,2.3898,2.3892,2.389,2.3892,2.3938,2.3939,2.394,2.3941,0,2.3728,2.3725,2.3748,2.377,2.3788,2.3805,2.382,2.3834,2.3827,2.3846,2.3872,2.3888,2.3917,2.3942,2.3962,2.3968,2.3953,2.3952,2.396,2.3963,2.3963,2.3962,2.3849,2.3949,2.3948,2.3948,2.3947,2.3947,2.3797,2.3821,2.3833,2.3858,2.3868,2.3882,2.3904,2.3906,2.3929,2.3952,2.3946,2.3976,2.3987,2.4013,2.4021,2.4043,2.4029,2.4042,2.4045,2.4048,2.4051,2.396,2.4047,2.4047,2.4047,2.4046,2.4046,0,2.3888,2.3894,2.3918,2.3938,2.3958,2.3942,2.3957,2.3974,2.4001,2.4013,2.4032,2.4062,2.4085,2.4088,2.4109,2.4127,2.412,2.4133,2.4131,2.4132,2.4063,2.4053,2.4138,2.4137,2.4137,2.4137,2.4137,2.4137,2.3938,2.3978,2.3976,2.402,2.4025,2.4055,2.4064,2.4076,2.4086,2.412,2.4139,2.414,2.4148,2.417,2.419,2.419,2.4198,2.4213,2.421,2.4146,2.4137,2.4128,2.4119,2.4215,2.4215,2.4277,2.4277,2.4278]}]]